• MPC Preparation (Info)

  • MPEC 2010-G24 : 2010 GB6

    The following Minor Planet Electronic Circular may be linked-to from your own Web pages, but must not otherwise be redistributed electronically.

    A form allowing access to any MPEC is at the bottom of this page.


    Read MPEC 2010-G23 Read MPEC 2010-G25


    M.P.E.C. 2010-G24                                Issued 2010 Apr. 5, 16:24 UT
    
         The Minor Planet Electronic Circulars contain information on unusual
             minor planets and routine data on comets.  They are published
       on behalf of Commission 20 of the International Astronomical Union by the
              Minor Planet Center, Smithsonian Astrophysical Observatory,
                              Cambridge, MA 02138, U.S.A.
    
                 Prepared using the Tamkin Foundation Computer Network
    
                                  MPC@CFA.HARVARD.EDU
           URL https://www.minorplanetcenter.org/iau/mpc.html  ISSN 1523-6714
    
                                       2010 GB6
    
    Observations:
         K10G06B* C2010 04 05.16784 09 52 08.90 -13 24 22.2          19.0 V EG024703
         K10G06B  C2010 04 05.17353 09 52 09.26 -13 22 46.6          18.9 V EG024703
         K10G06B  C2010 04 05.17928 09 52 09.55 -13 21 09.8          18.9 V EG024703
         K10G06B  C2010 04 05.18676 09 52 09.87 -13 19 05.3          18.6 V EG024703
         K10G06B  C2010 04 05.18742 09 52 10.02 -13 18 53.6          19.1 V EG024703
         K10G06B  C2010 04 05.18812 09 52 10.05 -13 18 41.6          19.0 V EG024703
         K10G06B  C2010 04 05.18880 09 52 10.09 -13 18 29.9          18.4 V EG024703
         K10G06B  C2010 04 05.24520 09 52 13.18 -13 02 39.3          18.9 V EG024703
         K10G06B  C2010 04 05.24589 09 52 13.22 -13 02 28.9          19.4 V EG024703
         K10G06B  C2010 04 05.24659 09 52 13.29 -13 02 17.5          19.4 V EG024703
         K10G06B  C2010 04 05.24729 09 52 13.29 -13 02 05.3          19.3 V EG024703
         K10G06B  C2010 04 05.26870 09 52 14.55 -12 56 04.0          19.5 R EG024651
         K10G06B  C2010 04 05.27024 09 52 14.66 -12 55 37.5          20.0 R EG024651
         K10G06B  C2010 04 05.27075 09 52 14.76 -12 55 29.3          19.5 R EG024651
         K10G06B  C2010 04 05.30731 09 52 16.97 -12 45 13.0          19.4 R EG024926
         K10G06B  C2010 04 05.30896 09 52 17.07 -12 44 45.8          19.5 R EG024926
         K10G06B  C2010 04 05.31061 09 52 17.20 -12 44 19.3          20.0 R EG024926
    
    Observer details:
    651 Grasslands Observatory, Tucson.  Observer J. E. McGaha.  0.62-m f/5.1
        Newtonian reflector + CCD.
    703 Catalina Sky Survey.  Observer A. Boattini.  Measurers J. D. Ahern,
        E. C. Beshore, A. Boattini, G. J. Garradd, A. R. Gibbs, A. D. Grauer,
        R. E. Hill, R. A. Kowalski, S. M. Larson, R. H. McNaught.  0.68-m Schmidt
        + CCD.
    926 Tenagra II Observatory.  Observers P. R. Holvorcem, M. Schwartz.  Measurer
        P. R. Holvorcem.  0.81-m f/7 Ritchey-Chretien + CCD.
    
    Orbital elements:
    2010 GB6                                                 Earth MOID = 0.0717 AU
    Epoch 2010 July 23.0 TT = JDT 2455400.5                 MPC
    M 297.87120              (2000.0)            P               Q
    n   1.32515802     Peri.  189.65540     +0.89903588     -0.42188723
    a   0.8209013      Node   196.85132     +0.42387499     +0.90567927
    e   0.3156168      Incl.   23.85584     +0.10983844     -0.04190730
    P   0.74           H   22.8           G   0.15           U   9
    Residuals in seconds of arc
    100405 703  0.2-  0.5+    100405 703  0.4+  0.0     100405 651  0.2+  0.4+
    100405 703  0.5+  0.4+    100405 703  0.4-  1.1+    100405 651  1.2+  0.0
    100405 703  0.1+  0.4+    100405 703  0.4-  0.1-    100405 926  0.1-  0.7+
    100405 703  1.2-  1.0-    100405 703  0.0   0.5-    100405 926  0.2-  0.2+
    100405 703  0.5+  0.5-    100405 703  0.6-  0.1-    100405 926  0.1+  1.1-
    100405 703  0.3+  0.2-    100405 651  0.1-  0.2-
    
    Ephemeris:
    2010 GB6                 a,e,i = 0.82, 0.32, 24                  q = 0.5618
    Date    TT    R. A. (2000) Decl.     Delta      r     Elong.  Phase     V
    2010 04 04    09 50.35   -18 57.9    0.0871   1.062   133.9    42.7    19.3
    2010 04 05    09 51.88   -14 10.7    0.0885   1.064   134.2    42.4    19.3
    2010 04 06    09 53.39   -09 34.1    0.0905   1.065   134.0    42.5    19.4
    2010 04 07    09 54.87   -05 11.3    0.0931   1.067   133.4    43.0    19.5
    2010 04 08    09 56.33   -01 04.1    0.0962   1.068   132.3    43.8    19.5
    2010 04 09    09 57.77   +02 46.1    0.0998   1.070   131.0    44.9    19.7
    2010 04 10    09 59.20   +06 19.1    0.104    1.071   129.6    46.1    19.8
    2010 04 11    10 00.63   +09 35.0    0.108    1.072   128.0    47.5    19.9
    2010 04 12    10 02.04   +12 34.6    0.113    1.073   126.3    48.8    20.0
    2010 04 13    10 03.45   +15 18.8    0.118    1.074   124.7    50.2    20.2
    2010 04 14    10 04.86   +17 48.6    0.123    1.075   123.0    51.5    20.3
    2010 04 15    10 06.27   +20 05.3    0.129    1.076   121.4    52.8    20.4
    2010 04 16    10 07.67   +22 10.0    0.135    1.077   119.8    54.0    20.6
    2010 04 17    10 09.08   +24 03.9    0.141    1.077   118.3    55.1    20.7
    2010 04 18    10 10.49   +25 47.8    0.147    1.078   116.8    56.3    20.8
    2010 04 19    10 11.90   +27 22.9    0.153    1.079   115.4    57.3    21.0
    2010 04 20    10 13.31   +28 50.0    0.159    1.079   114.0    58.3    21.1
    2010 04 21    10 14.73   +30 09.9    0.165    1.079   112.7    59.2    21.2
    2010 04 22    10 16.15   +31 23.3    0.172    1.080   111.4    60.1    21.3
    2010 04 23    10 17.57   +32 30.9    0.178    1.080   110.2    60.9    21.4
    2010 04 24    10 18.99   +33 33.2    0.185    1.080   109.0    61.7    21.5
    
    Timothy B. Spahr             (C) Copyright 2010 MPC           M.P.E.C. 2010-G24
    

    Read MPEC 2010-G23 Read MPEC 2010-G25


    MPEC number:

    Enter an MPEC number in one of the following forms:

    • 1997-B01 (the full form)
    • J97B01 (the packed version of the full form)
    • B01 (the abbreviated form)